Flag for Germany Weather past 2 weeks in Ettlingen, Baden-Württemberg, Germany

57 °F

Scattered clouds.

Feels Like: 56 °F
Forecast: 46 / 67 °F
Wind: 7 mph from Southwest

Location: Karlsruhe - Baden Wurttemberg

Current Time: Oct 4, 2015 at 11:18:13 AM

Latest Report: Oct 4, 2015 at 10:50 AM

Visibility: N/A

Pressure: 30.09 "Hg

Humidity: 88%

Dew point: 54 °F

Location of EttlingenLocation

Historic Weather in Ettlingen — Graph


Ettlingen temperature yesterday

Maximum temperature yesterday: 72 °F (at 3:50 PM)
Minimum temperature yesterday: 46 °F (at 5:50 AM)
Average temperature yesterday: 58 °F

Past Weeks' High & Low Weather Summary

High72 °F (Oct 3, 3:50 PM)100% (Sep 21, 5:20 AM)30.51 "Hg (Sep 21, 5:20 AM)
Low41 °F (Sep 21, 5:20 AM)28% (Sep 28, 5:20 PM)29.62 "Hg (Sep 22, 5:50 PM)
Average57 °F65%30.17 "Hg
* Reported Sep 19 9:02 AM — Oct 4 9:50 AM, Ettlingen, Weather by CustomWeather, © 2015

Note: Actual official high and low records may vary slightly from our data, if they occured in-between our weather recording intervals... More about our weather records


Ettlingen weather history for previous 24 hours

Time TempWeatherWind HumidityBarometerVisibility
9:50 AM
Sun, Oct 4
55 °FLight rain. Partly sunny.7 mph88%30.09 "HgN/A
9:20 AM55 °FLight rain. Partly sunny.10 mph88%30.09 "HgN/A
8:50 AM55 °FBroken clouds.8 mph88%30.07 "HgN/A
8:20 AM55 °FLight rain. Partly cloudy.5 mph88%30.07 "HgN/A
7:50 AM55 °FLight rain. Partly cloudy.5 mph88%30.07 "HgN/A
7:20 AM55 °FLight rain. Partly cloudy.8 mph88%30.07 "Hg6 mi
6:50 AM55 °FRain. Partly cloudy.9 mph88%30.07 "Hg4 mi
6:20 AM55 °FRain. Partly cloudy.7 mph88%30.07 "Hg3 mi
5:50 AM55 °FRain. Partly cloudy.7 mph88%30.04 "Hg3 mi
5:20 AM54 °FRain. Passing clouds.6 mph94%30.04 "Hg4 mi
4:50 AM54 °FRain. Passing clouds.6 mph94%30.01 "Hg4 mi
4:20 AM55 °FRain. Passing clouds.8 mph88%30.01 "Hg4 mi
1:20 AM54 °FClear.1 mph88%29.98 "Hg10 mi
12:50 AM54 °FClear.1 mph88%29.98 "Hg10 mi
11:20 PM
Sat, Oct 3
52 °FClear.No wind94%29.98 "Hg10 mi
10:50 PM54 °FClear.3 mph88%29.95 "Hg10 mi
10:20 PM54 °FClear.2 mph88%29.95 "Hg10 mi
9:50 PM54 °FClear.1 mph82%29.95 "Hg10 mi
9:20 PM55 °FClear.2 mph77%29.95 "Hg10 mi
8:50 PM55 °FClear.1 mph82%29.95 "Hg10 mi
8:20 PM55 °FClear.2 mph77%29.95 "Hg10 mi
7:50 PM57 °FSunny.2 mph77%29.95 "Hg10 mi
7:20 PM61 °FSunny.No wind68%29.95 "Hg10 mi
6:50 PM64 °FSunny.No wind60%29.95 "Hg10 mi
5:50 PM68 °FSunny.1 mph49%29.95 "Hg10 mi
5:20 PM66 °FSunny.1 mph52%29.95 "Hg10 mi
4:50 PM72 °FSunny.3 mph38%29.98 "Hg10 mi
4:20 PM70 °FPassing clouds.5 mph40%29.98 "HgN/A
3:50 PM72 °FPassing clouds.9 mph38%29.98 "HgN/A
3:20 PM70 °FPassing clouds.6 mph43%29.98 "HgN/A
2:50 PM70 °FSunny.5 mph46%29.98 "Hg10 mi
2:20 PM68 °FSunny.6 mph46%29.98 "Hg10 mi
1:50 PM68 °FSunny.7 mph46%30.01 "Hg10 mi
1:20 PM68 °FPassing clouds.9 mph49%30.01 "HgN/A
12:50 PM66 °FPassing clouds.8 mph49%30.01 "HgN/A
12:20 PM64 °FPassing clouds.8 mph56%30.04 "HgN/A
11:50 AM64 °FPassing clouds.12 mph52%30.04 "HgN/A
11:20 AM61 °FSunny.8 mph63%30.04 "Hg10 mi
Weather by CustomWeather, © 2015

See weather overviewHow to use our weather pages